Flag for United Kingdom Weather past 2 weeks in Stafford, England, United Kingdom

Now
52 °F

Sunny.


Feels Like: 51 °F
Forecast: 53 / 72 °F
Wind: 3 mph from Southwest

Location: Shawbury

Current Time: Jul 29, 2014 at 7:58:23 AM

Latest Report: Jul 29, 2014 at 6:50 AM


Visibility: 10 mi

Pressure: 30.07 "Hg

Humidity: 100%

Dew point: 52 °F

Location of StaffordLocation

Historic Weather in Stafford — Graph

°F

Stafford temperature yesterday

Maximum temperature yesterday: 73 °F (at 3:50 PM)
Minimum temperature yesterday: 55 °F (at 3:50 AM)
Average temperature yesterday: 63 °F

Past Weeks' High & Low Weather Summary

 TemperatureHumidityPressure
High81 °F (Jul 18, 2:50 PM)100% (Jul 14, 11:04 PM)30.24 "Hg (Jul 14, 11:04 PM)
Low48 °F (Jul 29, 4:50 AM)32% (Jul 24, 4:50 PM)29.71 "Hg (Jul 19, 4:50 PM)
Average66 °F74%30.03 "Hg
* Reported Jul 14 6:50 AM — Jul 29 6:50 AM, Stafford, Weather by CustomWeather, © 2014

Note: Actual official high and low records may vary slightly from our data, if they occured in-between our weather recording intervals... More about our weather records

Advertising

Stafford weather history for previous 24 hours

 ConditionsComfort  
Time TempWeatherWind HumidityBarometerVisibility
6:50 AM
Jul 29
52 °FSunny.3 mph100%30.07 "Hg10 mi
5:50 AM52 °FCool.1 mph94%30.04 "HgN/A
4:50 AM48 °FCool.1 mph100%30.07 "HgN/A
3:50 AM52 °FCool.6 mph94%30.07 "HgN/A
2:50 AM52 °FPassing clouds.2 mph94%30.07 "HgN/A
1:50 AM54 °FPassing clouds.2 mph94%30.09 "HgN/A
12:50 AM55 °FCool.2 mph94%30.07 "HgN/A
11:50 PM
Jul 28
57 °FCool.1 mph88%30.07 "HgN/A
10:50 PM57 °FCool.7 mph88%30.07 "HgN/A
9:50 PM61 °FCool.8 mph83%30.07 "HgN/A
8:50 PM63 °FMild.12 mph77%30.07 "HgN/A
7:50 PM66 °FMild.14 mph73%30.04 "HgN/A
6:50 PM70 °FMild.14 mph64%30.04 "HgN/A
5:50 PM72 °FPassing clouds.6 mph44%30.04 "HgN/A
4:50 PM73 °FSunny.8 mph44%30.04 "Hg10 mi
3:50 PM73 °FPassing clouds.8 mph44%30.01 "HgN/A
2:50 PM70 °FPassing clouds.7 mph50%30.04 "HgN/A
1:50 PM70 °FPassing clouds.7 mph53%30.04 "HgN/A
12:50 PM70 °FScattered clouds.5 mph53%30.04 "HgN/A
11:50 AM68 °FScattered clouds.6 mph56%30.04 "HgN/A
10:50 AM64 °FScattered clouds.6 mph64%30.04 "HgN/A
9:50 AM63 °FPartly sunny.5 mph68%30.04 "HgN/A
8:50 AM61 °FPartly sunny.2 mph72%30.01 "HgN/A
7:50 AM59 °FPartly sunny.1 mph88%30.01 "HgN/A
Weather by CustomWeather, © 2014

See weather overviewHow to use our weather pages